Location: ???????
(55.9142°N, 37.8256°E)
Time: 16:29:35
(UTC+00:00)

GP-B - Visible Passes

Search period start: 24 July 2024 00:00
Search period end: 03 August 2024 00:00
Orbit: 625 x 627 km, 89.8° (Epoch: 24 July)

Date Brightness Start Highest point End Pass type
(mag) Time Alt. Az. Time Alt. Az. Time Alt. Az.
24 Jul 5.9 19:05:41 10° NNW 19:08:20 16° WNW 19:10:58 10° WSW visible
25 Jul 6.4 19:26:40 10° NW 19:27:27 10° WNW 19:28:14 10° WNW visible
27 Jul 5.6 18:26:15 10° NNW 18:29:51 25° WNW 18:33:25 10° SW visible
28 Jul 6.0 18:46:15 10° NNW 18:49:03 17° WNW 18:51:50 10° WSW visible
29 Jul 6.4 19:06:54 10° NW 19:08:10 11° WNW 19:09:25 10° W visible
01 Aug 6.0 18:26:46 10° NNW 18:29:42 18° WNW 18:32:37 10° WSW visible
02 Aug 6.4 18:47:14 10° NW 18:48:49 12° WNW 18:50:25 10° W visible
